�N����,����,�~����,�C��,���x,�C��,����,���ϕ���,�ő�u�ԕ���,�ő厞����,���˗�,�I�_���x,�n�����x,�ő啗���N��,DTYPE
"18/10/19","00:10",0.0,14.5,88.2,1010.9,333.8,1.6,2.5,329.0,0.00,12.6,18.5,"00:02:40",1
"18/10/19","00:20",0.0,14.5,88.5,1010.4,339.3,1.5,2.6,342.7,0.00,12.7,18.4,"00:16:08",1
"18/10/19","00:30",0.0,14.4,88.7,1010.7,337.0,2.0,3.6,343.6,0.00,12.6,18.6,"00:23:20",1
"18/10/19","00:40",0.0,14.3,89.0,1010.7,336.3,2.0,3.1,342.8,0.00,12.6,18.4,"00:38:08",1
"18/10/19","00:50",0.0,14.2,89.2,1010.7,336.1,2.0,3.3,325.3,0.00,12.5,18.6,"00:48:24",1
"18/10/19","01:00",0.0,14.2,89.4,1010.7,336.3,1.7,2.9,342.3,0.00,12.5,18.4,"00:54:32",1
"18/10/19","01:10",0.0,14.2,89.5,1010.4,333.5,2.2,3.1,333.1,0.00,12.5,18.4,"01:06:24",1
"18/10/19","01:20",0.0,14.2,89.2,1010.7,333.6,1.7,3.4,329.4,0.00,12.5,18.2,"01:10:56",1
"18/10/19","01:30",0.0,14.1,89.3,1010.7,328.5,1.6,2.8,339.4,0.00,12.4,18.3,"01:21:52",1
"18/10/19","01:40",0.0,14.0,89.2,1010.2,328.7,1.8,2.9,325.7,0.00,12.3,18.3,"01:31:28",1
"18/10/19","01:50",0.0,13.9,89.7,1010.7,325.5,1.5,2.6,326.9,0.00,12.3,18.4,"01:49:28",1
"18/10/19","02:00",0.0,13.8,90.1,1010.7,323.2,1.6,2.1,327.5,0.00,12.2,18.2,"01:56:24",1
"18/10/19","02:10",0.0,13.8,90.4,1010.7,327.4,1.8,2.9,305.8,0.00,12.3,18.2,"02:06:40",1
"18/10/19","02:20",0.0,13.7,90.9,1010.9,310.3,1.1,2.5,346.1,0.00,12.3,17.8,"02:19:44",1
"18/10/19","02:30",0.0,13.8,90.7,1011.2,332.4,2.0,3.4,338.3,0.00,12.3,18.1,"02:27:12",1
"18/10/19","02:40",0.0,13.8,91.3,1010.7,325.2,2.5,3.7,337.5,0.00,12.4,18.0,"02:38:00",1
"18/10/19","02:50",0.0,14.0,91.0,1010.7,320.1,2.7,4.0,331.0,0.00,12.6,18.0,"02:41:12",1
"18/10/19","03:00",0.0,13.8,90.5,1010.9,308.7,2.3,3.9,314.0,0.00,12.3,18.2,"02:51:52",1
"18/10/19","03:10",0.0,13.6,91.0,1010.9,304.1,2.0,3.3,329.2,0.00,12.2,18.0,"03:01:28",1
"18/10/19","03:20",0.0,13.8,91.1,1011.2,313.8,2.5,4.2,332.2,0.00,12.4,18.0,"03:15:36",1
"18/10/19","03:30",0.0,13.8,90.9,1010.9,322.6,2.6,3.7,317.9,0.00,12.4,17.9,"03:25:36",1
"18/10/19","03:40",0.0,13.9,90.7,1011.4,313.6,2.2,4.3,324.5,0.00,12.4,18.0,"03:32:00",1
"18/10/19","03:50",0.0,13.9,90.5,1011.4,320.7,2.1,4.2,303.7,0.00,12.4,18.0,"03:40:08",1
"18/10/19","04:00",0.0,13.8,90.7,1011.4,316.8,2.0,3.6,329.9,0.00,12.3,17.8,"03:58:32",1
"18/10/19","04:10",0.0,13.6,90.3,1011.6,328.5,2.1,3.7,320.5,0.00,12.1,17.8,"04:00:40",1
"18/10/19","04:20",0.0,13.4,90.7,1011.9,328.4,2.2,3.3,326.2,0.00,12.0,17.8,"04:11:44",1
"18/10/19","04:30",0.0,13.5,91.1,1011.6,326.7,2.2,4.1,327.8,0.00,12.1,17.7,"04:29:36",1
"18/10/19","04:40",0.0,13.4,91.0,1011.4,322.7,2.5,3.5,323.1,0.00,12.0,17.7,"04:37:44",1
"18/10/19","04:50",0.0,13.3,91.5,1011.4,316.4,1.6,2.7,331.6,0.00,12.0,17.6,"04:40:08",1
"18/10/19","05:00",0.0,13.2,91.8,1011.4,325.2,2.1,3.2,315.6,0.00,11.9,17.8,"04:57:28",1
"18/10/19","05:10",0.0,13.1,92.4,1011.2,327.3,2.1,3.5,317.7,0.00,11.9,17.6,"05:06:24",1
"18/10/19","05:20",0.0,13.2,92.8,1011.2,325.9,3.4,4.9,326.0,0.00,12.1,17.7,"05:13:44",1
"18/10/19","05:30",0.0,13.0,92.9,1010.9,324.3,3.4,6.5,332.8,0.00,11.9,17.7,"05:23:44",1
"18/10/19","05:40",0.0,12.8,93.3,1011.2,321.8,2.7,4.3,313.4,0.00,11.8,17.7,"05:37:36",1
"18/10/19","05:50",0.0,12.9,93.7,1011.6,324.9,3.1,5.1,322.6,0.00,12.0,17.7,"05:41:04",1
"18/10/19","06:00",0.0,13.0,93.7,1011.6,327.8,3.2,5.1,334.7,0.00,12.0,17.7,"05:50:58",1
"18/10/19","06:10",0.0,12.9,93.5,1011.6,329.7,2.7,5.0,319.2,0.00,11.9,17.7,"06:04:40",1
"18/10/19","06:20",0.0,12.9,93.8,1011.6,327.7,2.8,4.1,337.4,0.00,12.0,17.7,"06:19:52",1
"18/10/19","06:30",0.0,12.8,94.0,1011.6,323.7,3.2,5.7,316.1,0.00,11.9,17.6,"06:22:24",1
"18/10/19","06:40",0.0,12.9,94.1,1011.6,325.7,2.8,4.5,338.2,0.00,12.0,17.5,"06:35:36",1
"18/10/19","06:50",0.0,12.9,94.2,1012.1,330.4,2.8,5.6,334.4,0.00,12.0,17.5,"06:47:12",1
"18/10/19","07:00",0.0,12.9,94.3,1012.1,331.9,3.2,5.4,330.5,0.00,12.0,17.6,"06:52:32",1
"18/10/19","07:10",0.0,13.0,94.3,1012.1,328.8,3.0,5.1,317.6,0.01,12.1,17.5,"07:02:08",1
"18/10/19","07:20",0.0,13.1,94.4,1012.3,327.7,2.7,4.3,343.4,0.01,12.3,17.8,"07:11:20",1
"18/10/19","07:30",0.0,13.3,94.1,1011.9,324.7,2.8,4.5,323.6,0.03,12.4,17.5,"07:25:20",1
"18/10/19","07:40",0.0,13.6,93.7,1012.3,325.3,2.7,4.5,333.3,0.05,12.6,17.5,"07:32:40",1
"18/10/19","07:50",0.0,14.0,92.9,1012.6,320.4,2.5,4.4,337.7,0.06,12.9,17.6,"07:49:12",1
"18/10/19","08:00",0.0,14.3,92.0,1012.6,318.0,2.1,3.9,339.2,0.07,13.1,17.6,"07:57:52",1
"18/10/19","08:10",0.0,14.7,90.8,1013.3,302.9,1.6,2.9,331.0,0.09,13.3,17.6,"08:02:16",1
"18/10/19","08:20",0.0,15.8,89.2,1013.0,303.4,1.2,3.3,342.3,0.12,14.1,17.7,"08:15:44",1
"18/10/19","08:30",0.0,16.1,86.9,1013.0,307.7,1.3,2.8,317.8,0.15,14.0,17.7,"08:26:24",1
"18/10/19","08:40",0.0,16.6,85.3,1012.8,322.5,1.6,3.5,339.9,0.17,14.2,17.9,"08:31:28",1
"18/10/19","08:50",0.0,17.2,84.0,1013.3,301.8,1.3,2.6,338.4,0.19,14.5,17.8,"08:46:40",1
"18/10/19","09:00",0.0,17.6,83.1,1012.8,309.5,1.3,2.4,332.0,0.22,14.7,17.9,"08:56:56",1
"18/10/19","09:10",0.0,18.1,81.0,1012.8,269.3,1.3,3.2,228.7,0.27,14.8,18.2,"09:02:00",1
"18/10/19","09:20",0.0,18.2,79.4,1012.6,290.6,1.2,2.6,345.2,0.27,14.6,18.3,"09:19:52",1
"18/10/19","09:30",0.0,18.0,81.0,1012.6,303.7,1.5,3.1,354.4,0.21,14.7,18.3,"09:22:48",1
"18/10/19","09:40",0.0,18.1,79.1,1012.6,293.6,1.3,2.4,326.5,0.28,14.5,18.6,"09:37:20",1
"18/10/19","09:50",0.0,17.9,80.6,1012.6,309.8,1.2,2.6,335.4,0.12,14.6,18.6,"09:44:24",1
"18/10/19","10:00",0.0,18.3,80.6,1012.6,327.1,1.8,3.6,342.3,0.19,14.9,18.7,"09:57:36",1
"18/10/19","10:10",0.0,18.5,77.8,1012.1,312.2,1.6,4.0,328.6,0.25,14.6,18.7,"10:07:20",1
"18/10/19","10:20",0.0,17.4,78.4,1012.3,287.9,2.1,5.1,330.6,0.10,13.6,18.9,"10:12:08",1
"18/10/19","10:30",0.0,16.9,80.5,1012.6,286.4,1.5,3.4,299.2,0.06,13.6,18.9,"10:26:24",1
"18/10/19","10:40",0.0,17.2,80.1,1012.3,297.1,2.0,4.3,348.4,0.07,13.8,18.7,"10:31:20",1
"18/10/19","10:50",0.0,18.4,76.4,1011.9,299.4,2.2,3.5,312.2,0.27,14.2,18.7,"10:41:20",1
"18/10/19","11:00",0.0,19.7,72.6,1011.6,294.6,2.1,5.5,332.1,0.32,14.7,19.0,"10:54:32",1
"18/10/19","11:10",0.0,20.1,70.5,1012.1,306.9,2.2,4.3,347.7,0.45,14.6,19.3,"11:03:44",1
"18/10/19","11:20",0.0,20.5,68.8,1011.4,296.6,1.7,4.0,319.2,0.44,14.6,19.3,"11:10:08",1
"18/10/19","11:30",0.0,20.9,67.0,1011.2,287.1,1.7,4.3,350.7,0.45,14.6,19.6,"11:22:24",1
"18/10/19","11:40",0.0,21.2,63.8,1011.4,267.0,1.8,4.2,220.9,0.47,14.1,19.4,"11:39:52",1
"18/10/19","11:50",0.0,21.5,62.5,1010.9,264.0,1.6,5.1,227.4,0.50,14.1,19.7,"11:40:08",1
"18/10/19","12:00",0.0,22.0,64.2,1010.7,284.4,1.2,3.3,320.4,0.42,15.0,19.8,"11:53:20",1
"18/10/19","12:10",0.0,20.8,64.4,1010.7,254.7,1.5,3.6,233.5,0.22,13.9,20.1,"12:06:00",1
"18/10/19","12:20",0.0,22.2,60.4,1010.2,272.5,1.2,3.1,248.7,0.41,14.2,20.1,"12:18:56",1
"18/10/19","12:30",0.0,21.6,59.5,1010.4,255.7,1.3,3.2,345.2,0.32,13.4,20.2,"12:21:28",1
"18/10/19","12:40",0.0,22.4,57.6,1010.0,261.6,1.5,3.9,215.1,0.40,13.7,20.3,"12:35:20",1
"18/10/19","12:50",0.0,22.6,55.5,1009.7,241.4,1.3,3.3,213.7,0.47,13.3,20.4,"12:45:44",1
"18/10/19","13:00",0.0,22.2,54.0,1009.7,238.3,1.3,4.3,228.6,0.38,12.5,20.6,"12:51:20",1
"18/10/19","13:10",0.0,22.7,56.2,1009.7,256.3,1.2,2.9,332.0,0.35,13.6,20.8,"13:05:28",1
"18/10/19","13:20",0.0,22.8,53.4,1009.5,290.8,1.6,3.4,336.8,0.41,12.9,20.7,"13:15:36",1
"18/10/19","13:30",0.0,22.0,53.6,1009.3,278.2,1.2,2.9,306.7,0.23,12.2,20.9,"13:28:08",1
"18/10/19","13:40",0.0,22.2,55.7,1009.0,289.1,1.5,3.6,327.1,0.20,13.0,20.8,"13:37:44",1
"18/10/19","13:50",0.0,22.6,54.1,1009.0,277.4,1.3,3.3,231.3,0.29,12.9,21.0,"13:46:08",1
"18/10/19","14:00",0.0,22.6,52.5,1009.0,241.8,1.8,4.8,224.4,0.30,12.4,20.9,"13:59:20",1
"18/10/19","14:10",0.0,23.0,52.8,1009.3,219.2,2.1,3.5,198.3,0.35,12.9,20.9,"14:07:28",1
"18/10/19","14:20",0.0,23.0,54.2,1009.0,265.2,1.6,3.5,232.7,0.34,13.3,21.1,"14:10:08",1
"18/10/19","14:30",0.0,22.6,53.1,1009.0,262.8,1.3,2.9,230.8,0.20,12.6,20.9,"14:26:00",1
"18/10/19","14:40",0.0,23.0,53.9,1009.0,240.6,1.6,4.3,229.6,0.26,13.2,20.9,"14:32:08",1
"18/10/19","14:50",0.0,23.1,51.3,1009.0,288.9,1.3,3.2,326.5,0.30,12.5,21.1,"14:48:00",1
"18/10/19","15:00",0.0,23.1,49.1,1009.0,274.0,1.5,3.4,318.1,0.21,11.9,21.2,"14:57:28",1
"18/10/19","15:10",0.0,22.0,53.3,1009.5,261.7,1.3,3.7,315.1,0.11,12.1,21.3,"15:03:36",1
"18/10/19","15:20",0.0,22.4,52.7,1009.5,238.9,1.7,3.4,228.2,0.19,12.3,20.9,"15:18:32",1
"18/10/19","15:30",0.0,22.8,51.2,1009.3,258.4,1.1,2.7,220.6,0.20,12.2,21.1,"15:22:48",1
"18/10/19","15:40",0.0,22.5,50.0,1009.5,277.4,1.5,4.0,332.6,0.17,11.6,20.9,"15:30:24",1
"18/10/19","15:50",0.0,22.5,49.2,1009.5,296.1,1.8,4.7,342.6,0.15,11.4,20.9,"15:46:48",1
"18/10/19","16:00",0.0,22.5,49.6,1009.5,293.3,1.2,3.4,313.2,0.12,11.5,20.9,"15:52:16",1
"18/10/19","16:10",0.0,22.9,47.6,1009.5,282.4,1.1,2.8,339.6,0.10,11.2,20.7,"16:07:36",1
"18/10/19","16:20",0.0,22.6,47.1,1009.5,289.6,1.1,2.0,308.0,0.08,10.8,20.7,"16:16:16",1
"18/10/19","16:30",0.0,22.4,48.6,1009.5,293.5,1.1,1.9,336.4,0.06,11.1,20.7,"16:27:04",1
"18/10/19","16:40",0.0,22.0,49.3,1009.5,278.9,1.1,2.1,333.9,0.04,10.9,20.7,"16:31:28",1
"18/10/19","16:50",0.0,21.7,53.4,1009.5,284.6,1.0,2.0,293.6,0.02,11.9,20.7,"16:41:44",1
"18/10/19","17:00",0.0,20.6,58.0,1009.7,289.0,1.0,2.0,311.5,0.01,12.1,20.5,"16:54:00",1
"18/10/19","17:10",0.0,19.7,60.3,1009.7,310.1,1.7,3.4,347.2,0.00,11.8,20.6,"17:06:52",1
"18/10/19","17:20",0.0,19.0,62.2,1010.2,303.8,1.3,2.6,323.2,0.00,11.7,20.6,"17:19:04",1
"18/10/19","17:30",0.0,18.8,64.0,1010.0,329.9,1.8,3.7,345.4,0.00,11.9,20.3,"17:26:56",1
"18/10/19","17:40",0.0,18.6,64.5,1010.2,331.7,2.5,4.4,315.5,0.00,11.8,20.4,"17:34:32",1
"18/10/19","17:50",0.0,18.4,65.4,1010.9,328.1,2.3,4.0,344.7,0.00,11.8,20.2,"17:42:56",1
"18/10/19","18:00",0.0,18.0,67.3,1010.9,334.3,2.1,4.2,335.2,0.00,11.9,20.2,"17:50:48",1
"18/10/19","18:10",0.0,17.5,69.4,1011.2,336.3,1.8,3.3,336.9,0.00,11.9,20.1,"18:07:36",1
"18/10/19","18:20",0.0,17.1,71.0,1011.4,335.0,2.0,3.3,348.3,0.00,11.8,19.8,"18:19:04",1
"18/10/19","18:30",0.0,17.0,70.1,1011.6,331.5,1.8,3.3,320.6,0.00,11.6,19.8,"18:27:52",1
"18/10/19","18:40",0.0,16.8,70.5,1011.4,335.3,1.7,3.5,340.7,0.00,11.5,19.8,"18:32:16",1
"18/10/19","18:50",0.0,16.6,71.4,1011.6,346.0,1.2,2.5,340.3,0.00,11.4,19.7,"18:47:44",1
"18/10/19","19:00",0.0,16.4,71.7,1011.9,334.1,1.5,2.2,332.9,0.00,11.3,19.8,"18:53:36",1
"18/10/19","19:10",0.0,16.3,71.9,1012.1,332.9,1.7,2.9,342.4,0.00,11.3,19.3,"19:09:52",1
"18/10/19","19:20",0.0,16.3,71.3,1012.1,322.9,1.6,2.8,357.2,0.00,11.1,19.5,"19:10:16",1
"18/10/19","19:30",0.0,16.1,73.1,1012.6,321.4,1.7,3.1,346.1,0.00,11.3,19.2,"19:23:52",1
"18/10/19","19:40",0.0,15.9,73.4,1012.3,313.2,1.5,2.5,308.3,0.00,11.2,19.4,"19:38:56",1
"18/10/19","19:50",0.0,15.7,74.8,1012.6,312.1,1.6,2.9,316.1,0.00,11.3,19.2,"19:48:40",1
"18/10/19","20:00",0.0,15.4,76.0,1012.3,315.7,1.8,2.6,311.1,0.00,11.2,19.2,"19:53:04",1
"18/10/19","20:10",0.0,15.3,76.8,1012.3,315.9,1.7,3.4,340.9,0.00,11.3,19.0,"20:08:00",1
"18/10/19","20:20",0.0,15.3,77.3,1012.8,320.0,1.5,2.5,336.8,0.00,11.4,18.8,"20:18:16",1
"18/10/19","20:30",0.0,15.2,77.9,1012.6,309.2,1.6,2.6,308.6,0.00,11.4,18.7,"20:24:16",1
"18/10/19","20:40",0.0,14.9,78.8,1012.8,298.3,1.2,2.0,321.0,0.00,11.3,18.7,"20:38:32",1
"18/10/19","20:50",0.0,14.6,80.1,1012.8,331.7,1.0,1.4,323.5,0.00,11.3,18.7,"20:40:32",1
"18/10/19","21:00",0.0,14.1,80.7,1013.0,318.3,0.7,1.3,318.6,0.00,10.9,18.5,"20:59:28",1
"18/10/19","21:10",0.0,13.7,83.9,1012.8,318.7,1.2,1.6,333.9,0.00,11.1,18.6,"21:00:56",1
"18/10/19","21:20",0.0,13.3,84.7,1013.3,313.4,1.2,1.8,306.4,0.00,10.8,18.7,"21:16:08",1
"18/10/19","21:30",0.0,12.9,86.5,1013.3,303.4,1.3,1.8,319.8,0.00,10.7,18.2,"21:23:12",1
"18/10/19","21:40",0.0,12.9,88.3,1013.3,318.2,1.2,1.9,325.7,0.00,11.1,18.4,"21:33:26",1
"18/10/19","21:50",0.0,12.8,87.8,1013.3,320.8,1.1,1.8,322.1,0.00,10.9,18.5,"21:42:58",1
"18/10/19","22:00",0.0,12.4,89.4,1013.3,307.8,1.1,1.6,316.4,0.00,10.7,18.3,"21:51:14",1
"18/10/19","22:10",0.0,12.2,90.8,1013.0,287.5,1.1,1.8,316.1,0.00,10.8,18.2,"22:09:56",1
"18/10/19","22:20",0.0,12.4,91.7,1013.5,324.2,1.2,1.9,338.9,0.00,11.1,18.2,"22:19:56",1
"18/10/19","22:30",0.0,12.6,91.6,1013.5,320.9,1.5,2.0,313.7,0.00,11.3,17.9,"22:23:12",1
"18/10/19","22:40",0.0,12.4,91.2,1013.5,314.0,1.6,1.9,324.5,0.00,11.0,17.8,"22:31:46",1
"18/10/19","22:50",0.0,12.7,92.0,1013.0,315.6,2.1,3.2,325.9,0.00,11.5,17.9,"22:42:14",1
"18/10/19","23:00",0.0,13.1,92.0,1013.3,313.6,2.2,4.0,325.9,0.00,11.9,17.8,"22:57:20",1
"18/10/19","23:10",0.0,13.5,91.4,1013.3,322.4,2.2,4.3,314.2,0.00,12.2,17.7,"23:01:44",1
"18/10/19","23:20",0.0,13.5,90.7,1013.3,327.0,1.6,2.5,325.2,0.00,12.1,17.7,"23:10:48",1
"18/10/19","23:30",0.0,13.2,89.8,1013.8,335.0,1.2,2.1,341.5,0.00,11.6,17.8,"23:23:52",1
"18/10/19","23:40",0.0,13.0,90.0,1013.5,332.6,1.7,2.5,342.5,0.00,11.4,17.7,"23:30:32",1
"18/10/19","23:50",0.0,13.0,91.2,1013.5,334.9,1.5,2.1,348.3,0.00,11.6,17.6,"23:46:16",1
"18/10/19","24:00",0.0,13.2,91.3,1013.8,326.6,1.7,2.8,324.4,0.00,11.9,17.7,"23:56:16",1
